Zurück zum Katalog

STARLINK-4049

AktivKommunikationVLEO
NORAD 52840·PAYLOAD·🇺🇸 United States

Gestartet Jun 17, 2022 von Cape Canaveral Space Force Station

Loading…

Nächste Überflüge (nächste 24 Stunden)

TLE

AktuellSource: CelesTrak SupGP

Epoche: Sep 15, 2026, 01:25 UTC

1 52840C 22062L   26258.05951389 -.00029912  00000+0 -96169-3 0  2580
2 52840  53.1602 228.7412 0001276  91.7649 201.0358 15.31723033    14

Verfolge STARLINK-4049 in Echtzeit mit AllMySat

Download on the App Store